Temp
25 28 28 29 28 28 28 27 28 30 29 29 30 29 31 28 25 26 25 24 24 24 27 23 25 25 25 24 23 23 22 21 20 20 20 20 20 20 19 18 18 16 16 16
27 28 28 26 26 27 27 28 29 29 29 29 30 29 30 30 28 28 26 25 24 24 25 24 25 24 24 24 23 22 20 21 19 19 20 20 20 19 19 18 18 17 16 16
28 28 26 26 27 28 28 28 29 29 29 29 28 29 30 31 27 27 26 26 25 25 25 24 25 25 24 22 22 21 21 20 19 19 19 19 20 19 19 19 19 18 17 17
27 27 27 27 27 28 28 29 29 29 28 29 27 29 28 29 29 29 28 26 25 24 23 24 26 25 20 22 21 23 20 22 20 20 19 19 19 18 19 19 18 18 18 17
28 26 26 27 28 27 29 27 27 27 28 27 27 29 31 26 29 30 29 27 26 25 24 24 25 21 23 24 23 21 22 23 22 20 20 19 19 19 19 19 18 18 18 17
28 25 27 29 28 27 26 27 25 24 27 28 27 29 31 31 31 30 27 25 24 24 24 23 22 22 22 22 23 21 22 23 23 21 20 19 19 19 18 18 18 18 18 17
26 27 27 27 28 27 27 27 28 28 28 29 24 27 30 30 28 26 25 24 24 24 23 22 20 21 21 20 19 19 20 22 23 21 20 19 19 18 18 18 17 17 17 17
26 26 27 28 29 29 27 28 28 27 28 29 23 28 31 27 24 22 22 23 24 23 22 21 20 22 22 21 22 19 21 23 23 22 20 18 18 18 17 17 17 17 17 17
26 26 26 26 28 29 26 27 26 25 22 27 28 28 29 28 26 23 22 22 22 21 20 20 22 21 19 18 19 20 23 23 23 22 20 18 18 18 17 17 17 17 16 16
27 26 27 28 27 25 28 26 27 26 25 26 27 26 29 30 28 24 23 22 20 19 20 22 22 21 19 20 21 21 21 22 21 21 19 18 18 17 17 16 16 16 16 16
25 27 27 26 28 29 26 27 24 26 25 28 28 29 28 27 26 24 23 22 20 20 20 22 23 23 23 23 21 22 21 21 20 19 19 18 18 18 18 16 16 16 16 16
25 27 27 28 26 26 27 27 27 28 25 24 26 29 26 25 23 22 23 22 20 20 20 22 23 22 24 23 21 21 22 19 18 20 19 18 18 18 18 17 16 16 16 15
23 25 27 27 26 25 27 25 25 23 24 24 27 29 23 22 21 20 21 21 20 21 22 22 21 21 22 21 20 22 20 20 20 20 19 18 18 18 17 16 16 16 15 15
22 22 25 28 28 28 26 25 24 26 27 25 28 28 26 23 22 22 21 20 20 21 22 18 20 20 22 24 23 23 22 22 21 19 18 18 17 18 17 17 16 15 15 15
23 24 23 23 24 26 27 27 25 26 26 29 28 27 24 21 20 20 21 20 20 20 23 21 21 21 22 22 22 22 21 21 20 19 18 17 16 17 16 16 16 16 15 15
20 23 22 24 24 26 25 25 26 25 24 25 25 26 22 19 19 20 20 20 20 20 22 21 21 21 21 21 22 21 21 21 20 19 19 16 17 16 16 16 17 16 16 16
21 22 23 25 22 25 25 21 23 21 20 20 25 22 20 20 19 19 19 19 20 20 22 21 22 21 21 21 21 22 22 22 21 19 18 18 17 16 16 17 17 17 15 16
21 20 20 24 23 24 20 21 22 20 18 18 19 19 18 18 18 17 16 18 19 19 22 20 20 21 21 22 21 22 23 21 20 20 19 19 17 16 16 17 17 17 16 15
19 21 21 23 23 20 20 20 20 22 20 18 17 19 18 18 18 19 16 16 18 19 20 21 21 22 22 22 22 22 22 22 20 19 20 18 17 16 16 17 18 17 16 16
17 17 23 20 22 22 20 19 17 18 22 17 17 17 16 18 24 21 16 16 17 18 20 21 21 22 22 22 22 22 22 21 20 19 19 19 18 17 17 18 18 16 16 16
19 18 21 21 21 19 18 16 16 20 21 16 15 15 14 17 16 15 16 17 16 17 19 19 21 23 22 22 22 22 22 21 20 21 21 19 18 18 18 17 17 16 16 16
19 19 19 18 19 19 15 17 18 15 14 14 14 14 13 13 14 15 16 16 17 18 17 19 19 21 21 21 22 22 22 21 21 21 20 19 19 18 17 17 17 16 16 15
18 17 18 17 18 15 14 14 12 12 13 13 13 13 12 13 14 14 15 16 17 18 18 18 19 19 20 21 21 21 21 21 20 21 20 20 19 18 18 17 17 17 17 16
15 14 17 16 16 16 14 13 13 13 12 12 12 12 12 12 13 13 13 15 16 16 16 17 18 17 17 18 19 20 21 20 21 20 19 19 19 19 17 17 17 17 17 17
16 15 16 16 16 15 14 14 13 13 13 13 13 12 12 11 11 11 11 12 13 15 15 15 15 16 17 17 17 18 18 21 20 19 19 19 19 19 18 17 17 17 17 16
16 16 19 18 16 16 15 14 14 14 13 13 13 12 12 12 11 11 11 11 12 12 13 13 14 14 14 15 15 16 18 18 19 19 19 18 18 18 18 17 17 16 15 15
Height
1516 1516 1518 1513 1513 1514 1517 1520 1520 1507 1506 1508 1504 1501 1494 1501 1501 1501 1505 1506 1509 1508 1508 1514 1517 1518 1520 1527 1532 1536 1539 1543 1543 1542 1541 1540 1540 1541 1542 1539 1536 1536 1537 1538
1515 1514 1511 1513 1514 1515 1515 1518 1515 1507 1505 1507 1503 1501 1493 1493 1492 1491 1495 1497 1500 1505 1504 1509 1512 1513 1518 1526 1530 1531 1535 1537 1539 1541 1541 1540 1538 1538 1537 1539 1537 1536 1536 1539
1509 1507 1509 1511 1513 1514 1511 1514 1510 1511 1505 1505 1507 1504 1494 1484 1485 1485 1487 1491 1492 1497 1499 1505 1508 1511 1518 1521 1526 1531 1535 1537 1542 1541 1539 1540 1538 1536 1537 1536 1536 1537 1537 1536
1505 1503 1505 1509 1510 1509 1514 1501 1502 1504 1511 1515 1507 1516 1498 1488 1483 1480 1481 1486 1488 1495 1496 1501 1504 1509 1513 1513 1515 1518 1529 1531 1533 1538 1537 1536 1536 1536 1535 1535 1536 1535 1538 1538
1501 1502 1505 1507 1503 1504 1503 1500 1502 1503 1506 1509 1511 1513 1490 1494 1486 1476 1477 1480 1480 1483 1484 1489 1496 1502 1503 1506 1509 1514 1525 1519 1526 1529 1532 1533 1533 1533 1533 1533 1534 1534 1535 1537
1494 1497 1497 1495 1496 1498 1500 1502 1506 1509 1504 1514 1510 1506 1490 1485 1480 1475 1481 1477 1475 1476 1477 1484 1493 1495 1498 1501 1504 1512 1518 1521 1523 1522 1525 1530 1529 1530 1530 1530 1532 1532 1533 1534
1497 1494 1493 1494 1497 1498 1499 1504 1513 1517 1513 1512 1513 1511 1489 1476 1480 1479 1476 1475 1472 1471 1474 1481 1487 1493 1497 1502 1517 1521 1522 1519 1517 1517 1520 1524 1526 1527 1527 1528 1528 1529 1532 1532
1501 1504 1489 1487 1487 1490 1495 1496 1504 1524 1518 1506 1515 1508 1485 1478 1480 1478 1476 1472 1470 1472 1473 1486 1492 1493 1492 1501 1503 1500 1504 1512 1510 1513 1516 1520 1523 1524 1525 1526 1526 1526 1529 1530
1495 1497 1481 1481 1481 1483 1495 1499 1494 1509 1524 1511 1502 1493 1478 1473 1476 1476 1476 1474 1473 1478 1482 1485 1488 1489 1493 1496 1497 1506 1499 1505 1506 1510 1513 1518 1521 1522 1522 1523 1523 1524 1528 1528
1479 1493 1480 1478 1481 1486 1484 1488 1499 1501 1522 1524 1506 1506 1488 1472 1472 1475 1475 1475 1478 1482 1483 1485 1486 1489 1493 1498 1500 1499 1501 1505 1509 1508 1513 1519 1519 1521 1521 1522 1523 1524 1526 1528
1476 1479 1483 1480 1478 1479 1489 1489 1498 1495 1502 1503 1508 1496 1471 1470 1471 1473 1472 1475 1482 1485 1485 1485 1485 1489 1495 1496 1496 1497 1502 1505 1506 1508 1513 1515 1517 1519 1518 1521 1524 1525 1527 1528
1472 1471 1481 1476 1474 1476 1475 1479 1480 1490 1507 1505 1498 1488 1469 1471 1472 1473 1471 1477 1484 1486 1486 1486 1487 1491 1493 1492 1490 1498 1501 1503 1507 1509 1512 1515 1519 1519 1520 1521 1523 1526 1527 1529
1471 1474 1480 1479 1478 1478 1475 1478 1480 1487 1489 1500 1495 1484 1475 1478 1476 1476 1475 1479 1482 1483 1484 1485 1489 1491 1493 1495 1497 1498 1503 1505 1504 1506 1510 1510 1514 1516 1522 1523 1523 1525 1528 1528
1469 1476 1471 1472 1466 1465 1475 1475 1479 1477 1481 1488 1481 1474 1474 1478 1476 1473 1473 1477 1483 1484 1485 1489 1489 1491 1493 1493 1498 1499 1502 1503 1505 1509 1512 1513 1515 1517 1519 1521 1524 1525 1526 1529
1470 1472 1474 1471 1469 1466 1466 1468 1475 1478 1473 1471 1472 1475 1479 1482 1478 1472 1471 1472 1476 1480 1483 1485 1486 1488 1490 1493 1496 1498 1502 1504 1506 1508 1513 1516 1519 1519 1520 1521 1522 1525 1525 1528
1471 1473 1472 1472 1471 1465 1472 1472 1471 1474 1478 1475 1476 1477 1482 1484 1480 1474 1471 1473 1475 1478 1481 1482 1482 1485 1490 1492 1495 1500 1503 1505 1507 1509 1512 1517 1517 1520 1522 1519 1519 1523 1524 1526
1471 1472 1472 1475 1477 1470 1478 1483 1478 1482 1485 1487 1478 1482 1483 1482 1481 1476 1472 1471 1474 1477 1478 1480 1482 1485 1486 1489 1493 1498 1501 1505 1505 1508 1511 1513 1516 1520 1521 1519 1519 1520 1526 1526
1473 1478 1479 1477 1476 1490 1488 1482 1480 1484 1489 1490 1488 1486 1485 1483 1482 1479 1475 1471 1471 1473 1473 1475 1478 1479 1483 1486 1491 1490 1494 1501 1501 1502 1507 1510 1514 1519 1520 1518 1518 1517 1521 1524
1475 1475 1483 1482 1482 1492 1488 1486 1486 1483 1490 1491 1490 1486 1486 1481 1479 1479 1476 1472 1470 1470 1470 1472 1472 1473 1477 1480 1483 1484 1489 1494 1500 1501 1501 1508 1511 1516 1517 1518 1517 1519 1519 1520
1478 1478 1475 1486 1485 1492 1485 1488 1490 1490 1488 1491 1490 1487 1484 1479 1471 1477 1476 1472 1470 1469 1469 1471 1472 1472 1474 1477 1480 1482 1485 1485 1490 1494 1498 1504 1507 1512 1513 1514 1515 1519 1519 1518
1481 1483 1481 1482 1486 1490 1487 1490 1491 1492 1491 1491 1490 1490 1489 1486 1487 1482 1478 1474 1470 1469 1468 1469 1473 1473 1474 1476 1478 1480 1483 1484 1486 1488 1490 1495 1501 1505 1508 1509 1513 1516 1517 1519
1483 1482 1484 1489 1488 1495 1491 1490 1491 1494 1493 1493 1492 1491 1489 1488 1484 1482 1478 1476 1474 1471 1469 1471 1474 1475 1474 1475 1475 1477 1478 1481 1483 1488 1488 1489 1494 1498 1502 1505 1510 1511 1513 1514
1486 1485 1484 1489 1488 1492 1493 1494 1494 1493 1494 1493 1491 1489 1487 1486 1484 1482 1479 1477 1476 1474 1474 1474 1473 1473 1475 1475 1476 1476 1477 1478 1478 1481 1483 1485 1488 1492 1496 1500 1506 1507 1508 1509
1488 1489 1485 1489 1491 1491 1493 1494 1493 1493 1493 1493 1492 1489 1487 1486 1482 1479 1477 1476 1474 1472 1471 1469 1469 1470 1471 1472 1472 1472 1472 1472 1475 1478 1478 1477 1480 1487 1490 1490 1498 1502 1503 1504
1486 1488 1487 1489 1489 1491 1492 1492 1493 1494 1493 1493 1491 1489 1488 1485 1481 1477 1473 1471 1471 1470 1469 1468 1466 1465 1464 1463 1463 1464 1466 1467 1471 1474 1475 1477 1478 1482 1486 1490 1492 1493 1496 1498
1485 1485 1484 1486 1488 1490 1493 1494 1494 1494 1493 1492 1490 1489 1487 1483 1480 1477 1473 1470 1468 1467 1466 1465 1465 1463 1462 1462 1461 1460 1460 1464 1468 1469 1471 1473 1474 1478 1481 1484 1486 1486 1491 1492
Wind_Speed
1 5 7 9 6 2 2 4 7 10 3 4 12 18 20 8 16 19 18 23 23 26 28 22 26 23 18 20 21 17 19 20 18 13 12 13 13 9 7 4 0 5 12 19
4 10 7 3 3 4 5 8 12 11 6 6 11 15 16 14 18 25 24 26 28 27 29 25 27 28 24 16 18 17 17 16 15 11 16 16 13 10 8 5 4 4 10 15
11 5 4 7 5 6 7 10 12 11 0 9 3 10 9 11 15 17 19 23 28 30 31 28 28 27 21 20 20 13 5 3 13 18 15 15 16 10 12 8 6 6 7 10
6 4 9 6 9 8 11 10 16 10 4 4 2 5 5 8 14 13 18 20 24 23 27 29 29 25 16 23 22 16 12 9 20 19 17 17 18 15 14 11 9 8 8 9
8 7 9 10 11 10 9 3 4 4 7 2 6 5 4 2 10 12 9 11 21 25 30 31 29 17 26 26 22 17 12 5 15 20 25 22 18 17 14 15 12 10 10 10
7 2 4 8 6 13 5 1 3 2 4 7 4 5 7 4 2 10 4 7 10 18 24 22 19 22 22 24 29 19 13 6 20 17 19 22 18 15 16 17 14 11 11 11
6 10 5 6 7 5 5 4 3 6 6 8 3 4 8 7 5 9 16 12 9 15 18 17 21 22 22 21 7 20 16 9 11 13 19 19 17 12 14 17 14 12 12 11
11 9 11 9 13 7 8 5 5 9 7 7 3 4 4 1 3 8 10 6 8 14 16 12 15 21 23 22 17 37 18 5 12 10 13 19 12 12 16 14 12 11 14 12
7 6 3 6 5 7 6 5 2 5 2 3 2 4 10 6 5 6 7 3 6 7 9 14 16 20 25 22 29 25 14 8 9 10 9 11 10 12 13 10 9 13 12 10
7 5 4 2 5 5 5 9 3 1 4 6 4 4 6 9 7 5 8 5 6 8 10 15 19 19 16 11 11 17 17 6 10 6 8 10 8 8 8 5 6 7 9 8
8 7 5 4 7 9 4 4 3 2 2 5 8 4 6 5 5 7 8 6 9 13 13 14 15 20 7 7 9 14 15 13 11 8 9 9 8 3 8 9 7 6 6 6
7 6 9 14 3 0 2 3 5 4 5 1 3 5 2 5 6 7 10 7 9 8 8 14 16 9 8 11 11 14 13 13 11 8 8 8 7 7 10 10 7 5 6 6
7 4 7 6 4 3 5 5 4 4 2 7 4 3 6 5 5 9 12 6 9 11 9 11 10 10 13 14 16 13 10 11 6 7 9 10 11 9 6 7 7 8 6 7
5 2 4 11 10 3 5 7 7 4 5 7 5 2 9 13 12 12 11 9 8 11 6 3 6 15 12 10 10 16 9 7 5 7 7 7 12 10 8 7 8 7 7 5
0 3 3 2 3 3 3 10 10 7 2 4 6 5 7 13 13 16 11 11 14 14 10 7 8 15 12 18 14 12 10 10 10 10 9 11 12 11 9 9 9 7 6 6
1 1 1 3 4 6 10 6 6 4 4 1 1 3 11 11 14 14 11 9 12 13 17 13 10 12 19 19 14 10 8 10 13 12 12 14 14 13 12 10 9 7 7 7
3 2 1 3 3 6 6 6 3 7 8 3 2 5 14 12 12 12 14 10 11 12 14 15 19 16 17 17 13 11 9 12 13 14 14 14 15 15 13 10 9 8 7 9
1 2 2 1 1 4 4 4 6 12 6 5 4 9 13 13 9 10 10 10 7 9 15 15 15 19 27 23 15 11 15 16 17 17 16 16 17 16 15 13 10 9 9 8
1 2 2 2 2 5 2 0 1 1 3 5 5 8 13 15 3 2 16 11 7 8 8 10 10 12 17 20 20 16 15 14 14 18 19 21 19 19 16 12 8 8 8 8
5 3 2 2 4 6 4 1 3 0 4 4 7 10 16 17 1 6 19 16 9 8 9 11 12 13 15 18 16 19 17 15 16 21 20 20 20 19 15 11 9 10 9 8
2 2 6 5 1 2 4 3 7 6 3 6 7 8 11 6 5 13 14 12 11 6 7 11 14 12 13 15 18 18 17 14 14 18 20 22 21 20 17 14 14 14 14 13
0 1 2 2 3 5 7 5 4 3 2 5 7 7 11 11 13 11 12 10 7 4 6 10 7 8 11 14 14 17 17 16 16 16 19 22 20 19 17 16 17 18 19 20
1 1 1 1 3 4 6 6 1 1 4 5 8 11 11 13 14 15 15 13 11 10 8 7 7 5 7 14 14 17 20 16 14 16 17 22 20 17 16 14 14 18 22 23
1 2 2 2 3 4 4 2 3 4 5 6 6 9 10 14 19 21 18 17 15 17 21 25 22 22 21 20 18 18 21 18 20 20 19 17 19 18 21 21 28 25 24 23
1 4 3 2 1 2 3 1 2 4 6 7 9 10 10 17 21 20 21 17 16 17 18 19 19 19 19 20 20 25 26 26 23 22 18 15 16 16 21 26 28 27 26 20
3 3 1 2 3 3 3 2 4 5 7 9 11 12 12 15 17 19 17 16 16 14 12 12 11 10 10 11 11 10 13 17 22 24 21 16 14 16 21 21 21 17 15 17
Wind_Direction
175 226 227 216 210 231 263 263 274 275 235 265 269 268 279 242 230 237 229 220 222 222 228 227 228 217 218 240 250 258 256 253 240 247 262 273 280 265 273 286 231 194 198 199
196 244 217 203 175 222 235 266 263 282 275 203 267 269 278 269 246 244 230 223 222 225 233 229 233 234 225 230 244 246 243 246 253 264 283 284 283 248 241 244 216 185 196 200
221 226 167 188 192 213 246 253 269 260 217 224 279 272 273 281 255 259 251 238 230 223 229 231 234 236 236 228 227 222 229 279 274 257 269 280 282 256 232 230 216 201 191 199
234 221 204 205 237 217 260 254 252 260 212 271 228 292 261 286 289 277 264 238 239 231 234 237 239 237 199 214 213 201 248 312 274 265 269 273 275 270 244 231 226 212 213 207
215 188 191 210 224 187 258 263 285 253 202 193 196 243 267 280 285 279 313 263 242 228 227 230 230 199 225 223 218 204 152 351 303 268 261 261 262 264 243 233 230 223 218 220
232 214 209 227 220 197 122 234 65 87 174 235 160 252 269 249 253 305 119 331 242 219 221 221 203 209 210 207 221 211 181 349 291 282 247 255 263 249 247 233 232 221 218 217
207 229 226 208 240 181 190 210 239 210 206 245 105 214 275 271 316 301 308 297 241 214 212 188 170 188 198 197 174 187 177 356 335 244 224 247 258 251 238 230 228 228 221 218
210 230 204 186 217 224 198 216 231 237 227 249 126 225 262 274 300 312 309 281 221 206 201 155 149 176 190 165 229 197 198 228 293 259 239 241 232 244 235 235 227 228 225 224
173 235 241 208 165 186 156 207 63 113 56 253 280 262 271 260 250 321 304 237 204 185 144 152 170 175 171 189 194 205 190 229 250 238 224 217 230 241 243 250 244 223 226 231
201 243 205 150 149 66 226 140 179 177 180 241 213 262 266 277 246 257 259 222 152 143 156 174 196 186 161 138 182 198 182 213 214 194 181 201 210 231 260 225 194 198 216 225
158 220 172 206 201 195 153 183 68 116 284 268 269 245 229 268 232 231 240 202 153 156 167 168 184 197 199 272 197 193 174 185 164 156 180 178 181 184 137 153 178 180 196 209
195 193 224 227 121 33 161 178 177 232 195 219 288 246 188 199 210 233 240 199 142 147 171 187 197 205 252 211 199 156 154 150 161 155 174 166 175 138 138 152 172 200 182 175
174 204 217 208 156 158 209 184 171 113 144 185 213 226 67 21 299 268 276 215 176 184 196 223 213 208 187 163 181 164 149 161 165 178 182 169 171 164 165 174 177 173 170 164
154 147 237 235 230 155 176 182 182 213 185 160 221 260 42 17 346 292 254 230 193 203 238 200 200 196 212 168 173 188 176 177 211 196 195 187 182 182 180 176 178 171 165 174
269 214 193 39 329 191 152 176 169 215 196 202 160 181 43 352 328 317 275 233 206 206 212 224 207 195 200 191 183 184 196 225 207 201 211 209 196 192 188 179 171 171 169 195
345 151 177 100 35 130 93 62 158 107 134 38 33 114 11 351 344 332 327 259 230 223 229 223 210 198 206 200 202 225 232 230 214 207 214 209 199 198 196 180 166 183 187 187
31 46 22 148 25 142 110 11 63 101 65 341 72 355 335 346 1 352 341 315 255 226 231 227 221 226 206 205 208 214 229 226 216 210 213 207 196 203 200 177 169 163 196 197
94 80 357 117 178 199 80 36 98 108 71 29 331 331 331 324 317 12 356 337 313 251 255 235 232 225 214 219 212 174 237 222 213 212 209 201 200 205 201 182 171 159 188 209
355 144 108 206 144 111 221 58 331 318 82 19 326 335 339 334 263 294 358 342 302 300 258 233 224 192 186 194 180 185 195 208 227 216 204 202 200 205 204 201 187 196 187 209
67 55 243 157 187 188 89 34 9 5 194 10 347 350 348 354 298 10 344 344 318 281 253 229 182 165 168 179 184 182 193 191 203 203 203 207 204 208 210 213 216 225 223 217
29 41 207 188 152 97 30 344 158 194 93 359 353 346 342 357 342 317 336 339 329 318 196 163 155 162 170 183 192 207 204 207 205 199 201 205 210 214 215 224 235 241 247 248
136 210 153 149 149 188 11 125 236 25 332 330 316 322 326 318 319 318 336 329 339 36 55 145 171 181 188 191 201 208 211 205 193 209 207 203 210 217 222 232 245 248 249 252
224 296 126 288 70 109 67 89 97 322 306 321 312 320 320 323 332 331 328 315 297 286 308 307 279 263 224 215 220 226 222 229 211 204 207 209 207 211 218 234 255 258 260 254
144 192 109 204 117 102 88 116 60 15 349 349 343 349 349 338 335 326 321 313 300 290 294 292 289 278 267 268 258 242 248 236 229 221 212 206 204 212 211 238 243 252 261 260
79 172 122 82 98 81 42 33 15 16 20 19 12 3 351 344 340 338 331 317 307 301 293 293 297 292 284 283 274 258 253 243 233 218 204 209 216 222 220 232 233 246 251 249
177 138 134 122 156 95 102 61 34 21 6 356 350 346 342 346 347 346 344 349 340 328 304 284 295 297 297 283 274 264 239 227 230 223 216 220 240 249 240 237 233 237 229 238